Preview of NWS' New Version of Forecast
This preview is not operational and should not be used for support decisions.

Regional Weather Roundup (RWR)

Issued by Philadelphia/Mt Holly (PHI)

                            
000
ASUS41 KPHI 221212
RWRPHI

REGIONAL WEATHER ROUNDUP
NATIONAL WEATHER SERVICE MOUNT HOLLY NJ
800 AM EDT FRI MAR 22 2019

NOTE:  "FAIR" INDICATES FEW OR NO CLOUDS BELOW 12,000 FEET WITH NO
SIGNIFICANT WEATHER AND/OR OBSTRUCTIONS TO VISIBILITY.

 * = STATION DOES NOT REPORT PRECIPITATION (E.G. RAIN, SNOW, ETC.) 
        OR FOG.

NJZ015>026-221300-
SOUTHERN NEW JERSEY
  
CITY           SKY/WX    TMP DP  RH WIND       PRES   REMARKS
POMONA         CLOUDY    42  41  96 NW28G41   29.35R                  
6HR MIN TEMP:  42; 6HR MAX TEMP:  47; 6HR PCP:  0.25;                

WILDWOOD*      LGT RAIN  41  38  89 W16G33    29.45R                  
MILLVILLE      LGT RAIN  40  37  89 NW17G33   29.43R WCI  31          
WRIGHTSTOWN    LGT RAIN  40  40 100 NW18G29   29.34F WCI  30          
MOUNT HOLLY    LGT RAIN  41  37  86 NW12G24   29.40R                  
TRENTON        LGT RAIN  40  38  93 NW15G21   29.38R WCI  32          
6HR MIN TEMP:  39; 6HR MAX TEMP:  45; 6HR PCP:  0.14;                


$$
NJZ001>014-221300-
NORTHERN NEW JERSEY
  
CITY           SKY/WX    TMP DP  RH WIND       PRES   REMARKS
SUSSEX         LGT RAIN  39  36  89 N9        29.40R WCI  33          
ANDOVER*         N/A     37  34  89 N8G16     29.40R WCI  31          
MORRISTOWN     LGT RAIN  37  37 100 N16G24    29.37R WCI  28          
NEWARK         CLOUDY    42  39  89 NW22G31   29.33R                  
TETERBORO      LGT RAIN  41  38  89 NW18G25   29.33R FOG              
CALDWELL       LGT RAIN  40  37  89 VRB7G17   29.37R FOG              
SOMERVILLE     RAIN      39  37  92 N9G18     29.36R FOG     WCI  33  
ALLAIRE*       LGT RAIN  41  40  96 NW21      29.31R                  
TOMS RIVER*    LGT RAIN  39  38  96 NW16G30   29.33R WCI  30          

$$
PAZ043-044-047-054-055-060>062-066>071-221300-
EASTERN PENNSYLVANIA
  
CITY           SKY/WX    TMP DP  RH WIND       PRES   REMARKS
PHILADELPHIA   LGT RAIN  39  35  86 NW21G30   29.45R WCI  29          
6HR MIN TEMP:  39; 6HR MAX TEMP:  46; 6HR PCP:  0.20;                

NORTH PHILA    LGT RAIN  42  36  79 NW15G28   29.43R                  
BLUE BELL*     CLOUDY    36  36 100 NW9G20    29.45R WCI  29          
DOYLESTOWN     LGT RAIN  38  35  89 NW15G28   29.41R WCI  29          
QUAKERTOWN*    CLOUDY    37  36  93 VRB6G15   29.45R FOG     WCI  33  
PERKASIE*      RAIN      36  36 100 NW10G20   29.44R WCI  28          
POTTSTOWN      RAIN      38  37  97 NW15G25   29.47R FOG     WCI  29  
LANCASTER      CLOUDY    44  37  76 NW22G29   29.51R                  
COATESVILLE    LGT RAIN  39  39 100 NW18G25   29.48R WCI  30          
READING        CLOUDY    43  39  86 NW21G36   29.48R                  
6HR MIN TEMP:  39; 6HR MAX TEMP:  43; 6HR PCP:  0.38;                

ALLENTOWN      LGT RAIN  41  34  76 NW14G21   29.45R                  
6HR MIN TEMP:  41; 6HR MAX TEMP:  45; 6HR PCP:  0.34;                

MOUNT POCONO   LGT SNOW  32  32 100 NW23G32   29.39R FOG     WCI  19  
6HR MIN TEMP:  32; 6HR MAX TEMP:  34; 6HR PCP:  0.44;                

HAZLETON       LGT SNOW  36  32  87 NW15G30   29.49F WCI  26          
LEHIGHTON      DRIZZLE   39  36  87 NW6       29.47R WCI  35          
WILKES BARRE   SNOW      33  32  96 S3        29.48R VSB 1/2          

$$
DEZALL-MDZ008-012-015-019-020-221300-
DELAWARE AND EASTERN MARYLAND
  
CITY           SKY/WX    TMP DP  RH WIND       PRES   REMARKS
WILMINGTON     CLOUDY    42  39  89 NW24G32   29.48R                  
6HR MIN TEMP:  40; 6HR MAX TEMP:  47; 6HR PCP:  0.11;                

DOVER          LGT RAIN  43  41  93 W16G24    29.48R                  
GEORGETOWN     LGT RAIN  46  41  82 NW10G21   29.49R                  
6HR MIN TEMP:  44; 6HR MAX TEMP:  51; 6HR PCP:  0.13;                

EASTON         CLOUDY    46  37  71 W20G28    29.58R                  
PATUXENT       MOCLDY    47  39  74 W23G31    29.58R                  
OCEAN CITY     LGT RAIN  44  41  89 NW20G32   29.48R                  
WALLOPS ISLAND PTSUNNY   47  39  74 W22G35    29.54R                  
CAMBRIDGE      MOCLDY    46  37  71 NW15G29   29.55R                  
SALISBURY      CLOUDY    45  40  82 W17G30    29.52R                  

$$
PAZ001-021-NYZ056-072-MDZ011-DCZ001-221300-
OTHER NEARBY LOCATIONS
  
CITY           SKY/WX    TMP DP  RH WIND       PRES   REMARKS
HARRISBURG     CLOUDY    43  33  68 NW22G32   29.55R                  
STATE COLLEGE  CLOUDY    36  30  80 NW7G20    29.61S WCI  30          
WILLIAMSPORT   CLOUDY    40  31  70 W10       29.57R WCI  33          
BINGHAMTON     LGT SNOW  34  33  96 NW15G22   29.47S FOG     WCI  24  
NEW YORK CITY  LGT RAIN  42  40  92 MISG      29.34  FOG              
BALTIMORE      MOCLDY    45  34  65 W24G36    29.55R                  
WASHINGTON DC  MOCLDY    47  33  58 NW23G30   29.61R                  

$$